Tracking 19149 objects as of 20-Apr-2018
HD Live streaming from Space Station
objects crossing your sky now

OPS 3148

Track OPS 3148 now!
OPS 3148 is classified as:


NORAD ID: 3889
Int'l Code: 1969-036A
Perigee: 31,963.6 km
Apogee: 39,577.4 km
Inclination: 7.6 °
Period: 1,434.9 minutes
Semi major axis: 42141 km
RCS: Unknown
Launch date: April 13, 1969
Source: United States (US)
Launch site: AIR FORCE EASTERN TEST RANGE (AFETR)
aabbcc
Your satellite tracking list
Your tracking list is empty




NASA's NSSDC Master Catalog

Two Line Element Set (TLE):
1 03889U 69036A   18095.24386427 0.00000000  00000-0  00000-0 0    04
2 03889   7.6174  68.8146 0903357 110.3051 259.6246  1.00354687    04
Source of the keplerian elements: McCants